Canberra, Capital Territory

9:55 AM AEST on August 29, 2016 (GMT +1000)
Canberra

Weather History for YSCB - September, 2012

Change the Weather History Date:

Thursday, September 27, 2012

  Actual Average Record
Temperature  
Mean Temperature 56 °F -  
Max Temperature 73 °F 66 °F - ()
Min Temperature 38 °F 42 °F - ()
Degree Days  
Heating Degree Days 10    
Growing Degree Days 6 (Base 50)    
Moisture  
Dew Point 43 °F    
Average Humidity 65    
Maximum Humidity 93    
Minimum Humidity 25    
Precipitation  
Precipitation 0.00 in 0.08 in - ()
Sea Level Pressure  
Sea Level Pressure 29.99 in    
Wind  
Wind Speed 5 mph ()    
Max Wind Speed 20 mph    
Max Gust Speed -    
Visibility 6.3 miles    
Events      
T = Trace of Precipitation, MM = Missing Value Source: Averaged Metar Reports

Daily Weather History Graph

Daily Weather History Graph

Search for Another Location

Airport or City:

Trip Planner

Search our weather history database for the weather conditions in past years. The results will help you decide how hot, cold, wet, or windy it might be!

Date:

Astronomy

Sep. 27, 2012 Rise Set
Actual Time 5:45 AM AEST 6:03 PM AEST
Civil Twilight 5:20 AM AEST 6:28 PM AEST
Nautical Twilight 4:50 AM AEST 6:58 PM AEST
Astronomical Twilight 4:20 AM AEST 7:28 PM AEST
Moon 3:19 PM AEST (9/27) 3:41 AM AEST (9/27)
Length of Visible Light 13h 08m
Length of Day
12h 17m
Waxing Gibbous, 90% of the Moon is Illuminated
Sep 27
Waxing Gibbous
Sep 30
Full
Oct 8
Last Quarter
Oct 15
New
Oct 22
First Quarter

Hourly Weather History & Observations

Time (AEST) Temp. Windchill Dew Point Humidity Pressure Visibility Wind Dir Wind Speed Gust Speed Precip Events Conditions
12:00 AM 45 °F - 39 °F 71% 30.10 in - SE 2.3 mph - -  
12:00 AM 44.6 °F - 39.2 °F 81% 30.06 in 6.2 mi SE 2.3 mph - N/A   Unknown
12:30 AM 46.4 °F - 39.2 °F 76% 30.06 in 6.2 mi Calm Calm - N/A   Unknown
1:00 AM 44 °F - 38 °F 71% 30.08 in - Calm Calm - -  
1:00 AM 44.6 °F - 37.4 °F 76% 30.06 in 6.2 mi Calm Calm - N/A   Unknown
1:30 AM 42.8 °F - 37.4 °F 81% 30.06 in 6.2 mi Calm Calm - N/A   Unknown
2:00 AM 42.8 °F - 37.4 °F 81% 30.04 in 6.2 mi Calm Calm - N/A   Unknown
2:30 AM 41.0 °F - 35.6 °F 81% 30.04 in 6.2 mi Calm Calm - N/A   Unknown
3:00 AM 41 °F - 37 °F 82% 30.05 in - Calm Calm - -  
3:00 AM 41.0 °F - 37.4 °F 87% 30.04 in 6.2 mi Calm Calm - N/A   Unknown
3:30 AM 41.0 °F - 37.4 °F 87% 30.04 in 6.2 mi Calm Calm - N/A   Unknown
4:00 AM 38 °F - 36 °F 91% 30.05 in - Calm Calm - -  
4:00 AM 39.2 °F - 35.6 °F 87% 30.04 in 6.2 mi Calm Calm - N/A   Unknown
4:30 AM 39.2 °F - 37.4 °F 93% 30.04 in - Calm Calm - N/A   Clear
5:00 AM 39.2 °F 37.0 °F 37.4 °F 93% 30.04 in - NNW 3.5 mph - N/A   Clear
5:30 AM 39.2 °F 35.9 °F 37.4 °F 93% 30.04 in - NW 4.6 mph - N/A   Clear
6:00 AM 41 °F - 38 °F 87% 30.07 in - SE 5.8 mph - -  
6:00 AM 41.0 °F 37.1 °F 39.2 °F 93% 30.06 in - SE 5.8 mph - N/A   Clear
6:30 AM 41.0 °F - 39.2 °F 93% 30.06 in - South 1.2 mph - N/A   Clear
7:00 AM 44 °F - 42 °F 90% 30.08 in - Calm Calm - -  
7:00 AM 44.6 °F - 42.8 °F 93% 30.06 in - Calm Calm - N/A   Clear
7:30 AM 46.4 °F - 41.0 °F 81% 30.06 in - Calm Calm - N/A   Clear
8:00 AM 48.2 °F - 42.8 °F 82% 30.06 in - NW 3.5 mph - N/A   Clear
8:30 AM 51.8 °F - 42.8 °F 71% 30.06 in - SW 2.3 mph - N/A   Clear
9:00 AM 55 °F - 45 °F 59% 30.09 in 9 mi Calm Calm - -   Partly Cloudy
9:00 AM 55.4 °F - 44.6 °F 67% 30.06 in - Calm Calm - N/A   Clear
9:30 AM 60.8 °F - 44.6 °F 55% 30.04 in - North 5.8 mph - N/A   Clear
10:00 AM 64.4 °F - 42.8 °F 45% 30.04 in - NW 5.8 mph - N/A   Clear
10:30 AM 66.2 °F - 42.8 °F 43% 30.04 in - NW 12.7 mph - N/A   Clear
11:00 AM 66.2 °F - 42.8 °F 43% 30.04 in - WNW 10.4 mph - N/A   Clear
11:30 AM 68.0 °F - 42.8 °F 40% 30.01 in - NNW 17.3 mph - N/A   Clear
12:00 PM 69.8 °F - 42.8 °F 38% 30.01 in - NW 13.8 mph - N/A   Clear
12:30 PM 69.8 °F - 42.8 °F 38% 29.98 in - NNW 18.4 mph - N/A   Clear
1:00 PM 72 °F - 44 °F 25% 29.97 in - NNW 15.0 mph - -  
1:00 PM 71.6 °F - 42.8 °F 35% 29.95 in - NNW 15.0 mph - N/A   Clear
1:30 PM 73.4 °F - 44.6 °F 36% 29.95 in - NW 12.7 mph - N/A   Clear
2:00 PM 69.8 °F - 48.2 °F 46% 29.92 in - NW 15.0 mph - N/A   Clear
2:30 PM 68.0 °F - 48.2 °F 49% 29.92 in - NW 12.7 mph - N/A   Clear
3:00 PM 70 °F - 47 °F 33% 29.93 in - North 15.0 mph - -  
3:00 PM 69.8 °F - 48.2 °F 46% 29.92 in - North 15.0 mph - N/A   Clear
3:30 PM 69.8 °F - 48.2 °F 46% 29.89 in - North 17.3 mph - N/A   Clear
4:00 PM 71 °F - 44 °F 27% 29.91 in - NNW 19.6 mph - -  
4:00 PM 71.6 °F - 44.6 °F 38% 29.89 in - NNW 19.6 mph - N/A   Clear
4:30 PM 69.8 °F - 42.8 °F 38% 29.89 in - NNW 18.4 mph - N/A   Clear
5:00 PM 69.8 °F - 44.6 °F 40% 29.89 in - NNW 17.3 mph - N/A   Clear
5:30 PM 68.0 °F - 46.4 °F 46% 29.89 in - North 11.5 mph - N/A   Clear
6:00 PM 65 °F - 47 °F 41% 29.91 in - North 10.4 mph - -  
6:00 PM 64.4 °F - 46.4 °F 52% 29.89 in 6.2 mi North 10.4 mph - N/A   Mostly Cloudy
6:30 PM 62.6 °F - 46.4 °F 55% 29.89 in 6.2 mi North 5.8 mph - N/A   Mostly Cloudy
7:00 PM 59 °F - 47 °F 55% 29.94 in - South 4.6 mph - -  
7:00 PM 59.0 °F - 46.4 °F 63% 29.92 in 6.2 mi South 4.6 mph - N/A   Mostly Cloudy
7:30 PM 59.0 °F - 48.2 °F 67% 29.92 in 6.2 mi ESE 8.1 mph - N/A   Mostly Cloudy
8:00 PM 57.2 °F - 48.2 °F 72% 29.92 in 6.2 mi NW 6.9 mph - N/A   Scattered Clouds
8:30 PM 60.8 °F - 48.2 °F 63% 29.89 in 6.2 mi NE 16.1 mph - N/A   Mostly Cloudy
9:00 PM 58 °F - 49 °F 65% 29.94 in - SSW 8.1 mph - -  
9:00 PM 57.2 °F - 50.0 °F 77% 29.92 in 6.2 mi South 8.1 mph - N/A   Unknown
9:30 PM 55.4 °F - 48.2 °F 77% 29.92 in 6.2 mi East 6.9 mph - N/A   Scattered Clouds
10:00 PM 52 °F - 47 °F 79% 29.93 in - ESE 5.8 mph - -  
10:00 PM 51.8 °F - 48.2 °F 88% 29.92 in 6.2 mi ESE 5.8 mph - N/A   Unknown
10:30 PM 51.8 °F - 46.4 °F 82% 29.92 in 6.2 mi SE 2.3 mph - N/A   Unknown
11:00 PM 51.8 °F - 46.4 °F 82% 29.92 in 6.2 mi Calm Calm - N/A   Unknown
11:30 PM 51.8 °F - 48.2 °F 88% 29.92 in 6.2 mi South 1.2 mph - N/A   Unknown